LRAR Weather Reports


time (UTC)temp
F
wind
direction
speed
knots
gust
knots
rain 1hr
in
rain 24hr
in
rain mn
in
humidity
%
barometer
mb
20260507230338 59 350 0.9 0.0 0.00 0.00 0.00 100 1015.0
20260507224838 59 100 1.7 0.0 0.00 0.00 0.00 100 1015.0
20260507223458 59 100 1.7 0.0 0.00 0.00 0.00 100 1015.0
20260507221835 59 1.7 0.0 0.00 0.00 0.00 100 1015.0
20260507220338 59 1.7 0.0 0.00 0.00 0.00 100 1015.0
20260507214838 59 340 1.7 0.0 0.00 0.00 0.00 100 1015.0
20260507213340 59 340 1.7 0.0 0.00 0.00 0.00 100 1015.0
20260507211839 61 90 1.7 0.0 0.00 0.00 0.00 94 1015.0
20260507210339 61 90 1.7 0.0 0.00 0.00 0.00 94 1015.0
20260507204838 61 110 2.6 0.0 0.00 0.00 0.00 94 1015.0
20260507203339 61 110 2.6 0.0 0.00 0.00 0.00 94 1015.0
20260507201838 61 80 2.6 0.0 0.00 0.00 0.00 94 1015.0
20260507200339 61 80 2.6 0.0 0.00 0.00 0.00 94 1015.0
20260507194844 61 30 1.7 0.0 0.00 0.00 0.00 94 1015.0
20260507193338 61 30 1.7 0.0 0.00 0.00 0.00 94 1015.0
20260507191838 61 10 1.7 0.0 0.00 0.00 0.00 94 1015.0
20260507190339 61 10 1.7 0.0 0.00 0.00 0.00 94 1015.0
20260507184840 61 0 0.0 0.0 0.00 0.00 0.00 94 1014.0
20260507183338 61 0 0.0 0.0 0.00 0.00 0.00 94 1014.0
20260507181838 61 80 0.9 0.0 0.00 0.00 0.00 88 1014.0
20260507180338 61 80 0.9 0.0 0.00 0.00 0.00 88 1014.0
20260507174838 61 90 1.7 0.0 0.00 0.00 0.00 88 1014.0
20260507173339 61 90 1.7 0.0 0.00 0.00 0.00 88 1014.0
20260507171839 63 50 2.6 0.0 0.00 0.00 0.00 83 1014.0
20260507170338 63 50 2.6 0.0 0.00 0.00 0.00 83 1014.0
20260507164839 63 100 1.7 0.0 0.00 0.00 0.00 83 1014.0
20260507163339 63 100 1.7 0.0 0.00 0.00 0.00 83 1014.0
20260507161838 63 60 2.6 0.0 0.00 0.00 0.00 83 1014.0
20260507160338 63 60 2.6 0.0 0.00 0.00 0.00 83 1014.0
20260507154839 63 80 4.3 0.0 0.00 0.00 0.00 77 1014.0
20260507153338 63 80 4.3 0.0 0.00 0.00 0.00 77 1014.0
20260507151838 63 100 1.7 0.0 0.00 0.00 0.00 83 1014.0
20260507150338 63 100 1.7 0.0 0.00 0.00 0.00 83 1014.0
20260507144838 63 100 5.2 0.0 0.00 0.00 0.00 83 1014.0
20260507143340 63 100 5.2 0.0 0.00 0.00 0.00 83 1014.0
20260507141838 64 130 4.3 0.0 0.00 0.00 0.00 78 1015.0
20260507140338 64 130 4.3 0.0 0.00 0.00 0.00 78 1015.0
20260507134839 64 120 6.1 0.0 0.00 0.00 0.00 78 1015.0
20260507133338 64 120 6.1 0.0 0.00 0.00 0.00 78 1015.0
20260507131835 64 130 5.2 0.0 0.00 0.00 0.00 78 1015.0
20260507130338 64 130 5.2 0.0 0.00 0.00 0.00 78 1015.0
20260507124835 64 160 5.2 0.0 0.00 0.00 0.00 78 1015.0
20260507123418 64 160 5.2 0.0 0.00 0.00 0.00 78 1015.0
20260507121838 63 170 5.2 0.0 0.00 0.00 0.00 83 1015.0
20260507120338 63 170 5.2 0.0 0.00 0.00 0.00 83 1015.0
20260507114838 63 170 5.2 0.0 0.00 0.00 0.00 83 1015.0
20260507113358 63 160 6.1 0.0 0.00 0.00 0.00 83 1015.0
20260507111838 63 160 6.1 0.0 0.00 0.00 0.00 83 1015.0
20260507110338 63 160 6.1 0.0 0.00 0.00 0.00 83 1015.0
20260507104838 63 190 7.8 0.0 0.00 0.00 0.00 94 1015.0
20260507103338 63 190 7.8 0.0 0.00 0.00 0.00 94 1015.0
20260507101838 63 180 8.7 0.0 0.00 0.00 0.00 94 1016.0
20260507100339 63 180 8.7 0.0 0.00 0.00 0.00 94 1016.0
20260507094839 63 180 7.0 0.0 0.00 0.00 0.00 94 1016.0
20260507093339 63 180 7.0 0.0 0.00 0.00 0.00 94 1016.0
20260507091840 61 170 5.2 0.0 0.00 0.00 0.00 100 1015.0
20260507090338 61 170 5.2 0.0 0.00 0.00 0.00 100 1015.0
20260507084838 61 190 7.0 0.0 0.00 0.00 0.00 94 1015.0
20260507083339 61 190 7.0 0.0 0.00 0.00 0.00 94 1015.0
20260507081838 61 210 7.0 0.0 0.00 0.00 0.00 94 1015.0
20260507080339 61 210 7.0 0.0 0.00 0.00 0.00 94 1015.0
20260507074839 59 220 7.0 0.0 0.00 0.00 0.00 100 1015.0
20260507073338 59 220 7.0 0.0 0.00 0.00 0.00 100 1015.0
20260507071838 61 230 8.7 0.0 0.00 0.00 0.00 88 1015.0
20260507070338 61 230 8.7 0.0 0.00 0.00 0.00 88 1015.0
20260507064838 63 230 6.1 0.0 0.00 0.00 0.00 77 1014.0
20260507063338 63 230 6.1 0.0 0.00 0.00 0.00 77 1014.0
20260507061848 61 240 4.3 0.0 0.00 0.00 0.00 77 1014.0
20260507060338 61 240 4.3 0.0 0.00 0.00 0.00 77 1014.0
20260507054838 61 240 2.6 0.0 0.00 0.00 0.00 72 1014.0
20260507053346 61 240 2.6 0.0 0.00 0.00 0.00 72 1014.0
20260507051839 59 250 2.6 0.0 0.00 0.00 0.00 77 1013.0
20260507050338 59 250 2.6 0.0 0.00 0.00 0.00 77 1013.0
20260507044835 59 320 4.3 0.0 0.00 0.00 0.00 77 1013.0
20260507043338 59 320 4.3 0.0 0.00 0.00 0.00 77 1013.0
20260507041838 57 240 2.6 0.0 0.00 0.00 0.00 82 1012.0
20260507040338 57 240 2.6 0.0 0.00 0.00 0.00 82 1012.0
20260507034835 57 0.9 0.0 0.00 0.00 0.00 77 1012.0
20260507033338 57 0.9 0.0 0.00 0.00 0.00 77 1012.0
20260507031838 57 0 0.0 0.0 0.00 0.00 0.00 77 1012.0
20260507030338 57 0 0.0 0.0 0.00 0.00 0.00 77 1012.0
20260507024835 57 1.7 0.0 0.00 0.00 0.00 77 1012.0
20260507023338 57 1.7 0.0 0.00 0.00 0.00 77 1012.0
20260507021838 57 270 2.6 0.0 0.00 0.00 0.00 77 1012.0
20260507020338 57 270 2.6 0.0 0.00 0.00 0.00 77 1012.0
20260507014838 59 140 4.3 0.0 0.00 0.00 0.00 72 1011.0
20260507013338 59 140 4.3 0.0 0.00 0.00 0.00 72 1011.0
20260507011838 59 130 4.3 0.0 0.00 0.00 0.00 68 1011.0
20260507010338 59 130 4.3 0.0 0.00 0.00 0.00 68 1011.0
20260507004838 61 0.9 0.0 0.00 0.00 0.00 63 1011.0
20260507003339 61 0.9 0.0 0.00 0.00 0.00 63 1011.0
20260507001838 61 170 5.2 0.0 0.00 0.00 0.00 63 1011.0
20260507000338 61 170 5.2 0.0 0.00 0.00 0.00 63 1011.0
20260506234838 63 160 7.0 0.0 0.00 0.00 0.00 59 1011.0
20260506233338 63 160 7.0 0.0 0.00 0.00 0.00 59 1011.0
20260506231839 59 140 7.8 0.0 0.00 0.00 0.00 68 1011.0